Regional Weather Roundup
Issued by NWS

Home | Current Version | Previous Version | Text Only | Print | Product List | Glossary Off
Versions: 1 2 3 4 5 6 7 8 9 10 11 12 13 14 15 16 17 18 19 20 21 22 23 24 25 26 27 28 29 30 31 32 33 34 35 36 37 38 39 40 41 42 43 44 45 46 47 48 49 50

000
ASUS43 KLOT 260004
RWRIL

ILLINOIS REGIONAL WEATHER ROUNDUP
NATIONAL WEATHER SERVICE CHICAGO/ROMEOVILLE IL
700 PM CDT MON SEP 25 2017

NOTE: "FAIR" INDICATES FEW OR NO CLOUDS BELOW 12,000 FEET WITH NO
SIGNIFICANT WEATHER AND/OR OBSTRUCTIONS TO VISIBILITY.

* THESE STATIONS ARE NOT UNDER NWS QUALITY CONTROL. THEY ALSO MAY NOT
  REPORT WEATHER SUCH AS PRECIPITATION OR FOG.

ILZ001-002-007-009-015-016-024-260100-
NORTHWEST ILLINOIS

CITY           SKY/WX    TMP DP  RH WIND       PRES   REMARKS
MOLINE         LGT RAIN  77  65  66 CALM      29.89R
6HR MIN TEMP:  76; 6HR MAX TEMP:  91; 6HR PCP:  0.02;

STERLING*      CLEAR     80  59  48 CALM      29.91R HX  81
SAVANNA*       CLOUDY    81  64  54 SW5       29.90R HX  83
$$

ILZ003-004-008-010-011-017-018-260100-
NORTH CENTRAL ILLINOIS

CITY           SKY/WX    TMP DP  RH WIND       PRES   REMARKS
ROCKFORD       PTCLDY    83  57  41 SE8       29.92R HX  82
6HR MIN TEMP:  83; 6HR MAX TEMP:  92;

FREEPORT*      CLEAR     78  60  53 S5        29.93S HX  80
ROCHELLE*      CLEAR     79  60  51 SE6       29.92S HX  80
DE KALB*       CLEAR     79  59  50 SE6       29.94R HX  80
PERU*          CLOUDY    83  59  43 SE7       29.91S HX  83
$$

ILZ005-006-012>014-019>023-260100-
NORTHEAST ILLINOIS

CITY           SKY/WX    TMP DP  RH WIND       PRES   REMARKS
CHICAGO-OHARE  PTCLDY    85  51  31 SE12      29.92R HX  83
6HR MIN TEMP:  85; 6HR MAX TEMP:  92;

CHICAGO-MIDWAY PTCLDY    85  56  37 E7        29.93R HX  84
6HR MIN TEMP:  85; 6HR MAX TEMP:  92;

AURORA         CLEAR     79  61  53 SE7       29.93R HX  80
6HR MIN TEMP:  79; 6HR MAX TEMP:  92;

LANSING*       CLEAR     80  60  50 CALM      29.94R HX  81
JOLIET*        PTCLDY    83  61  45 CALM      29.93R HX  84
WAUKEGAN       CLEAR     76  63  64 SE6       29.93S
6HR MIN TEMP:  76; 6HR MAX TEMP:  85;

DUPAGE AIRPORT CLEAR     81  60  48 S6        29.92R HX  82
6HR MIN TEMP:  81; 6HR MAX TEMP:  92;

KANKAKEE*      CLEAR     79  61  54 SE5       29.94S HX  80
WHEELING       CLEAR     83  58  42 SE6       29.94R HX  83
6HR MIN TEMP:  83; 6HR MAX TEMP:  92;

MORRIS*        CLOUDY    81  62  52 SE5       29.91S HX  82
ROMEOVILLE*    CLEAR     79  59  50 SE6       29.93R HX  80
NORTHERLY ISL    N/A     75  65  70 S1          N/A
$$

LMZ740>746-260100-
SOUTHERN LAKE MICHIGAN

STATION/POSITION SKY/WX   TEMP    WIND        PRES    VSBY  WAVE
                          AIR SEA DIR/SP/G                  HT/PER
                          (F)     (DEG/KT/KT) (MB)    (MI)  (FT/S)
SOUTHERN BUOY              74 72  140/  4/  4 1014.0          1
WILMETTE HARBOR            76 72  130/  8/ 10   N/A           1/ 2
HARRISON CRIB              80     110/ 14/ 15   N/A
BURNHAM HARBOR             74                   N/A
CALUMET HARBOR             78      80/  7/  9 1013.1R
BURNS HARBOR               85      90/  6/ 11 1014.2R
MICHIGAN CITY              84      90/  4/  5   N/A
MICHIGAN CITY 6N           76 74   90/  4/  6   N/A           0
ST. JOSEPH                 76 74  100/  4/  4 1013.7S         0
$$

ILZ025>027-034>036-040-047-049-050-058-095>099-260100-
WEST-CENTRAL ILLINOIS

CITY           SKY/WX    TMP DP  RH WIND       PRES   REMARKS
QUINCY         CLEAR     81  66  60 SE3       29.90S HX  83
GALESBURG*     CLEAR     80  62  53 S3        29.92R HX  81
MACOMB*        PTCLDY    81  60  48 SE5       29.92S HX  82
JACKSONVILLE*  CLEAR     83  61  47 S3        29.90S HX  83
PITTSFIELD*    CLEAR     82  63  52 S3        29.91S HX  83
$$

ILZ028>032-037-038-041>044-048-051>054-059>061-260100-
CENTRAL ILLINOIS

CITY           SKY/WX    TMP DP  RH WIND       PRES   REMARKS
PONTIAC        CLEAR     80  61  52 SE7       29.93R HX  81
BLOOMINGTON    PTCLDY    81  61  50 SE7       29.94R HX  82
DECATUR        PTCLDY    83  61  47 S5        29.92R HX  83
PEORIA         CLEAR     83  61  47 CALM      29.90S HX  83
6HR MIN TEMP:  83; 6HR MAX TEMP:  92;

LACON*         CLEAR     82  60  47 CALM      29.90R HX  82
LINCOLN*       CLEAR     83  63  49 S3        29.91R HX  84
SPRINGFIELD    CLEAR     85  62  46 S5        29.91R HX  85
6HR MIN TEMP:  85; 6HR MAX TEMP:  94;

TAYLORVILLE    CLEAR     80  61  52 S3        29.92S HX  81
6HR MIN TEMP:  80; 6HR MAX TEMP:  92;

$$

ILZ033-039-045-046-055>057-062-063-260100-
EAST-CENTRAL ILLINOIS

CITY           SKY/WX    TMP DP  RH WIND       PRES   REMARKS
CHAMPAIGN      CLEAR     81  58  45 S6        29.93S HX  81
RANTOUL*       CLEAR     84  62  48 SE3       29.93S HX  85
MATTOON        CLEAR     82  63  52 S3        29.92R HX  83
PARIS*         CLEAR     81  61  51 SE3       29.94R HX  81
$$

ILZ079-100>102-260100-
SOUTHWEST ILLINOIS

CITY           SKY/WX    TMP DP  RH WIND       PRES   REMARKS
ALTON          PTCLDY    82  64  54 S8        29.91S HX  84
BELLEVILLE     CLEAR     81  63  53 SW7       29.90S HX  82
CAHOKIA*       CLEAR     85  60  42 S6        29.90R HX  85
SPARTA*        CLEAR     83  61  47 SE3       29.93S HX  83
$$

ILZ064>066-069>071-074>076-080>082-084>086-088>090-092>094-260100-
SOUTH-CENTRAL ILLINOIS

CITY           SKY/WX    TMP DP  RH WIND       PRES   REMARKS
CARBONDALE     CLEAR     78  66  66 SW5       29.92R HX  80
6HR MIN TEMP:  78; 6HR MAX TEMP:  88;

CAIRO*         CLEAR     77  69  75 CALM      29.92S
EFFINGHAM*     CLEAR     84  60  44 CALM      29.94R HX  84
MARION         PTCLDY    82  64  54 S6        29.94R HX  84
MT. VERNON       N/A     79  66  64 CALM      29.93R HX  81
CENTRALIA*     CLEAR     81  63  53 S5        29.92R HX  83
SALEM*         CLOUDY    87  61  41 S5        29.93R HX  87
METROPOLIS*    CLEAR     79  67  68 CALM      29.94R HX  81
$$

ILZ067-068-072-073-078-083-087-091-260100-
SOUTHEAST ILLINOIS

CITY           SKY/WX    TMP DP  RH WIND       PRES   REMARKS
LAWRENCEVILLE  CLEAR     80  68  66 SE7       29.93S HX  83
FLORA*         CLEAR     82  64  54 S6        29.93R HX  83
FAIRFIELD*     CLEAR     83  61  46 CALM      29.92R HX  84
HARRISBURG*    PTCLDY    84  64  51 CALM      29.93R HX  85
ROBINSON*      CLEAR     78  66  66 SE3       29.93S HX  80
CARMI*         CLEAR     79  65  62 S3        29.92S HX  80
$$

ABBREVIATIONS USED IN REMARKS
   TC - TEMPERATURE IN CELSIUS
  WCI - WIND CHILL INDEX
   HX - HEAT INDEX
  VSB - VISIBILITY
$$





USA.gov is the U.S. government's official web portal to all federal, state and local government web resources and services.